Terminal Aerodrome Forecast
Issued by NWS Melbourne, FL

Home | Current Version | Previous Version | Text Only | Print | Product List | Glossary On
Versions: 1 2 3 4 5 6 7 8 9 10 11 12 13
000
FTUS42 KMLB 301700 RRA
TAFMLB
TAF
KMLB 301747Z 3018/3118 11009KT P6SM SCT040 BKN250
     FM310000 10006KT P6SM FEW040 BKN250
     FM310400 VRB03KT P6SM SCT250=

USA.gov is the U.S. government's official web portal to all federal, state and local government web resources and services.